Renton, WA
on Thursday, November 22, 2012

Thursday
Previous Day Next Day
Daily Summary
 ActualAverage (KSEA)Record (KSEA)
Temperature
Mean Temperature °F 44°F  
Max Temperature 48°F 49°F 58°F (1954)
Min Temperature 37°F 39°F 14°F (1985)
Degree Days
Heating Degree Days 22 21  
Month to date heating degree days 411  
Since 1 July heating degree days 1008  
Cooling Degree Days 0 0  
Month to date cooling degree days 0  
Year to date cooling degree days 189  
Moisture
Dew Point 37°F   
Average Humidity 79    
Maximum Humidity 89    
Minimum Humidity 66    
Precipitation
Precipitation 0.00 in 0.22 in 1.76 in (2011)
Month to date precipitation 4.80  
Year to date precipitation 30.37  
Snow
Snow 0.00 in in 2.50 in (2010)
Month to date snowfall  
Since 1 July snowfall  
Snow Depth in   
Wind
Wind Speed 2 mph   
Max Wind Speed 7 mph   
Max Gust Speed mph   
Visibility 10 miles   
Events Rain   

Key: T is trace of precipitation, MM is missing value
Source: NWS Daily Summary
Time(PST)TemperatureDew PointHumidity Pressure Visibility Wind DirectionWind SpeedGust SpeedPrecipitationEvents Conditions
12:53 AM 41.0°F 37.0°F 86% 30.32 in 10.0 miles SE 3.5 mph - N/A   Clear
1:53 AM 39.9°F 36.0°F 86% 30.34 in 10.0 miles Calm Calm - N/A   Clear
2:53 AM 39.0°F 35.1°F 86% 30.35 in 10.0 miles Calm Calm - N/A   Clear
3:53 AM 39.0°F 35.1°F 86% 30.36 in 10.0 miles Calm Calm - N/A   Mostly Cloudy
4:53 AM 39.0°F 35.1°F 86% 30.38 in 10.0 miles Calm Calm - N/A   Overcast
5:53 AM 39.0°F 36.0°F 89% 30.38 in 10.0 miles ESE 3.5 mph - N/A   Scattered Clouds
6:53 AM 37.9°F 35.1°F 89% 30.39 in 10.0 miles East 3.5 mph - N/A   Clear
7:53 AM 37.9°F 35.1°F 89% 30.38 in 10.0 miles South 3.5 mph - N/A   Clear
8:53 AM 39.0°F 36.0°F 89% 30.38 in 10.0 miles SSE 4.6 mph - N/A   Mostly Cloudy
9:53 AM 41.0°F 36.0°F 82% 30.38 in 10.0 miles Calm Calm - N/A   Scattered Clouds
10:53 AM 43.0°F 37.0°F 80% 30.38 in 10.0 miles Calm Calm - N/A   Overcast
11:53 AM 45.0°F 36.0°F 71% 30.36 in 10.0 miles Calm Calm - N/A   Overcast
12:53 PM 46.0°F 37.9°F 73% 30.32 in 10.0 miles Calm Calm - N/A   Overcast
1:53 PM 46.9°F 39.9°F 77% 30.32 in 10.0 miles NNW 3.5 mph - N/A   Mostly Cloudy
2:53 PM 48.0°F 39.9°F 74% 30.31 in 10.0 miles NW 3.5 mph - N/A   Scattered Clouds
3:53 PM 48.9°F 41.0°F 74% 30.31 in 10.0 miles Calm Calm - N/A   Overcast
4:53 PM 48.0°F 41.0°F 77% 30.30 in 10.0 miles Calm Calm - N/A   Overcast
5:53 PM 48.0°F 39.9°F 74% 30.27 in 10.0 miles Calm Calm - N/A   Overcast
6:53 PM 48.0°F 37.0°F 66% 30.26 in 10.0 miles Calm Calm - N/A   Mostly Cloudy
7:53 PM 48.0°F 37.0°F 66% 30.24 in 10.0 miles SSE 4.6 mph - N/A   Mostly Cloudy
8:53 PM 48.0°F 37.9°F 68% 30.22 in 10.0 miles South 5.8 mph - N/A   Mostly Cloudy
9:53 PM 48.0°F 39.0°F 71% 30.24 in 10.0 miles SSE 6.9 mph - N/A   Mostly Cloudy
10:53 PM 46.9°F 39.0°F 74% 30.24 in 10.0 miles South 4.6 mph - N/A   Overcast
11:53 PM 46.9°F 41.0°F 80% 30.25 in 9.0 miles SSE 3.5 mph - 0.00 in Rain Light Rain
Moon Phase
Nov. 22 Nov. 28 Dec. 06 Dec. 13 Dec. 20
Sunrise:07:24 AM (PST) Moon Rise:01:32 PM (PST)11/22
Sunset:04:25 PM (PST) Moon Set:01:29 AM (PST)11/22

Copyright © 2014 The Weather Underground, Inc.